Friday Harbor, WA
on Sunday, February 24, 2013

Sunday
Previous Day Next Day
Daily Summary
 ActualAverageRecord
Temperature
Mean Temperature °F °F  
Max Temperature 46°F 46°F 54°F (2005)
Min Temperature 41°F 34°F 24°F (2011)
Degree Days
Heating Degree Days 22    
Moisture
Dew Point 37°F   
Average Humidity 78    
Maximum Humidity 86    
Minimum Humidity 70    
Precipitation
Precipitation 0.00 in in in ()
Wind
Wind Speed 12 mph   
Max Wind Speed 28 mph   
Max Gust Speed 39 mph   
Visibility 10 miles   
Events     
Averages and records for this station are not official NWS values.
Key: T is trace of precipitation, MM is missing value
Source: NWS Daily Summary
Seasonal Weather Averages
Time(PST)TemperatureDew PointHumidity Pressure Visibility Wind DirectionWind SpeedGust SpeedPrecipitationEvents Conditions
12:53 AM 42.1°F 34.0°F 73% 30.35 in 10.0 miles SW 4.6 mph - N/A   Overcast
1:53 AM 42.1°F 33.1°F 70% 30.36 in 10.0 miles SW 5.8 mph - N/A   Overcast
2:53 AM 42.1°F 35.1°F 76% 30.36 in 10.0 miles South 5.8 mph - N/A   Overcast
3:53 AM 41.0°F 35.1°F 79% 30.35 in 10.0 miles Calm Calm - N/A   Overcast
4:53 AM 41.0°F 36.0°F 82% 30.33 in 10.0 miles ESE 6.9 mph - N/A   Overcast
5:53 AM 41.0°F 37.0°F 86% 30.32 in 10.0 miles ESE 11.5 mph - N/A   Overcast
6:26 AM 41.0°F 35.6°F 81% 30.31 in 10.0 miles ESE 10.4 mph - N/A   Overcast
6:53 AM 41.0°F 37.0°F 86% 30.31 in 10.0 miles ESE 9.2 mph - N/A   Overcast
7:20 AM 41.0°F 35.6°F 81% 30.31 in 10.0 miles SE 12.7 mph - N/A   Overcast
7:41 AM 41.0°F 35.6°F 81% 30.30 in 10.0 miles ESE 17.3 mph 21.9 mph N/A   Overcast
7:53 AM 41.0°F 36.0°F 82% 30.30 in 10.0 miles ESE 11.5 mph - N/A   Overcast
8:45 AM 42.8°F 35.6°F 76% 30.29 in 10.0 miles ESE 15.0 mph - N/A   Overcast
8:53 AM 43.0°F 37.0°F 80% 30.29 in 10.0 miles SE 13.8 mph - N/A   Overcast
9:53 AM 44.1°F 37.0°F 76% 30.28 in 10.0 miles SE 16.1 mph 23.0 mph N/A   Overcast
10:53 AM 44.1°F 37.0°F 76% 30.26 in 10.0 miles ESE 13.8 mph 19.6 mph N/A   Overcast
11:03 AM 44.6°F 37.4°F 76% 30.25 in 10.0 miles ESE 12.7 mph 23.0 mph N/A   Overcast
11:21 AM 44.6°F 37.4°F 76% 30.24 in 10.0 miles ESE 15.0 mph 21.9 mph N/A   Overcast
11:36 AM 44.6°F 37.4°F 76% 30.24 in 10.0 miles SE 13.8 mph - N/A   Overcast
11:53 AM 45.0°F 37.0°F 74% 30.24 in 10.0 miles ESE 16.1 mph 23.0 mph N/A   Overcast
12:53 PM 45.0°F 37.0°F 74% 30.22 in 10.0 miles SE 15.0 mph 27.6 mph N/A   Overcast
1:53 PM 45.0°F 37.9°F 76% 30.19 in 10.0 miles SE 17.3 mph 25.3 mph N/A   Overcast
2:04 PM 44.6°F 37.4°F 76% 30.18 in 10.0 miles SE 17.3 mph 26.5 mph N/A   Overcast
2:53 PM 45.0°F 37.9°F 76% 30.15 in 10.0 miles SE 19.6 mph 27.6 mph N/A   Overcast
3:03 PM 44.6°F 37.4°F 76% 30.15 in 10.0 miles SE 18.4 mph 27.6 mph N/A   Overcast
3:53 PM 45.0°F 37.9°F 76% 30.12 in 10.0 miles SE 18.4 mph 27.6 mph N/A   Overcast
4:10 PM 46.4°F 37.4°F 71% 30.11 in 10.0 miles SE 18.4 mph 27.6 mph N/A   Overcast
4:53 PM 45.0°F 37.9°F 76% 30.09 in 10.0 miles SE 24.2 mph 33.4 mph N/A   Overcast
5:53 PM 45.0°F 37.9°F 76% 30.04 in 10.0 miles SE 23.0 mph 39.1 mph N/A   Overcast
6:53 PM 45.0°F 39.0°F 80% 30.00 in 10.0 miles SE 26.5 mph 35.7 mph N/A   Overcast
7:05 PM 44.6°F 39.2°F 81% 30.00 in 10.0 miles SE 24.2 mph 34.5 mph N/A   Overcast
7:13 PM 44.6°F 37.4°F 76% 30.00 in 10.0 miles SE 19.6 mph 35.7 mph N/A   Overcast
7:53 PM 45.0°F 39.0°F 80% 29.97 in 10.0 miles SE 25.3 mph 35.7 mph N/A   Overcast
8:53 PM 45.0°F 39.0°F 80% 29.94 in 10.0 miles SE 21.9 mph 36.8 mph N/A   Overcast
9:53 PM 44.1°F 37.9°F 79% 29.89 in 10.0 miles SE 27.6 mph 38.0 mph N/A   Mostly Cloudy
10:53 PM 44.1°F 37.9°F 79% 29.87 in 10.0 miles SE 27.6 mph 39.1 mph N/A   Scattered Clouds
11:53 PM 44.1°F 37.9°F 79% 29.86 in 10.0 miles SSE 19.6 mph 33.4 mph N/A   Mostly Cloudy
Moon Phase
Feb. 24 Feb. 25 Mar. 04 Mar. 11 Mar. 19
Sunrise:07:02 AM (PST) Moon Rise:05:06 PM (PST)2/24
Sunset:05:48 PM (PST) Moon Set:06:04 AM (PST)2/24

Copyright © 2014 The Weather Underground, Inc.